Regional Weather Roundup
Issued by NWS

Home | Current Version | Previous Version | Text Only | Print | Product List | Glossary Off
Versions: 1 2 3 4 5 6 7 8 9 10 11 12 13 14 15 16 17 18 19 20 21 22 23 24 25 26 27 28 29 30 31 32 33 34 35 36 37 38 39 40 41 42 43 44 45 46 47 48 49 50

000
ASUS43 KBIS 231431
RWRND
NORTH DAKOTA REGIONAL WEATHER ROUNDUP
NATIONAL WEATHER SERVICE EASTERN NORTH DAKOTA/GRAND FORKS ND
900 AM CDT TUE MAY 23 2017

  NOTE: "FAIR" INDICATES FEW OR NO CLOUDS BELOW 12,000 FEET WITH NO
  SIGNIFICANT WEATHER AND/OR OBSTRUCTIONS TO VISIBILITY.

NDZ001>003-009>011-017-231500-
...NORTHWEST NORTH DAKOTA...

CITY           SKY/WX    TMP DP  RH WIND       PRES   REMARKS
WILLISTON      FAIR      52  37  56 CALM      30.18S
MINOT          FAIR      55  37  50 N14       30.15R
MINOT AFB      FAIR      53  37  54 NE9       30.15R
$$

NDZ018>021-031>035-040>046-231500-
...SOUTHWEST NORTH DAKOTA...

CITY           SKY/WX    TMP DP  RH WIND       PRES   REMARKS
BISMARCK       PTSUNNY   56  37  49 N24G31    30.08S
DICKINSON      FAIR      51  36  56 NW10      30.14S
GARRISON         N/A     52  35  52 NE14      30.14R
HETTINGER      FAIR      52  36  54 NW14      30.15R
$$

NDZ004>008-012>016-024-026-027-054-231500-
...NORTHEAST NORTH DAKOTA...

CITY           SKY/WX    TMP DP  RH WIND       PRES   REMARKS
GRAND FORKS    CLOUDY    51  45  79 N20       30.00R
GRAND FORKS AF CLOUDY    50  45  81 N18       30.01R
DEVILS LAKE    FAIR      50  41  71 NE21G30   30.07S
$$

NDZ022-023-025-028>030-036>039-047>053-231500-
...SOUTHEAST NORTH DAKOTA...

CITY           SKY/WX    TMP DP  RH WIND       PRES   REMARKS
JAMESTOWN      LGT RAIN  47  44  90 N20       30.01R
FARGO          CLOUDY    49  46  90 N16G28    29.94R
WAHPETON       CLOUDY    46  45  93 N10G20    29.93R
$$



USA.gov is the U.S. government's official web portal to all federal, state and local government web resources and services.